Current weather by "City, St" or "zip code"  
 
Advertise Here

Current Conditions: Hillsville, VA

Overcast


34.0 F

Last Updated on Jan 17 2021, 9:55 pm EST
Humidity: 73%
Wind Speed: SW 5.8 mph
Barometer 29.77 in
Dewpoint: 25.9 F
Visibility: 10.00 mi
Precip: --
Heat Index: NA
Wind Chill: 29 F
Current conditions at:

Hillsville, VA (KHLX)

Lat: 36.76667 Lon: 80.81667

Local Radar Image active severe weather and emergency alerts image image weather storm and storm spotter reports image weather observation monitoring service image
Local
Radar
Active
Alerts
Storm Reports Obs
Monitoring

Sign-up For Email & Text Message Weather Alert Notification Services


Advertise Here

Observation History for Hillsville, VA


Time Wind
(mph)
Vis
(mi)
Weather Precip (in) Temperature (F) Relative
Humidity
Wind
Chill
(F)
Heat
Index
(F)
Pressure
Air Dwpt altimeter
(in)
sea level
(mb)
Rmks
9:55 pm EST SW 5.8 10.00 Overcast -- 34.0 25.9 73% 29 NA 29.77 M
8:55 pm EST SW 8.1 10.00 Overcast -- 34.0 25.7 72% 27 NA 29.77 M
7:55 pm EST SW 5.8 10.00 Overcast -- 34.0 24.3 67% 29 NA 29.77 M
6:55 pm EST SW 10.4 10.00 Overcast -- 34.0 23.2 64% 26 NA 29.77 M
5:55 pm EST SW 9.2 G 16.1 10.00 Overcast -- 35.0 22.5 61% 28 NA 29.76 M
4:55 pm EST SW 12.7 G 21.9 10.00 Overcast -- 35.0 21.6 57% 26 NA 29.75 M
3:55 pm EST SW 12.7 G 20.7 10.00 Overcast -- 36.0 22.8 59% 28 NA 29.74 M
2:55 pm EST SW 6.9 10.00 Partly Cloudy -- 37.0 25.0 62% 32 NA 29.73 M
1:55 pm EST W 6.9 10.00 Overcast -- 34.0 25.5 72% 28 NA 29.76 M
12:55 pm EST W 8.1 10.00 Overcast -- 35.0 26.6 73% 28 NA 29.77 M
11:55 am EST SW 11.5 10.00 Overcast -- 34.0 26.8 74% 26 NA 29.79 M
10:55 am EST SW 9.2 10.00 Overcast -- 32.0 25.7 78% 24 NA 29.82 M
9:55 am EST W 9.2 10.00 Overcast -- 31.0 26.6 83% 23 NA 29.81 M
8:55 am EST W 9.2 10.00 Overcast -- 30.0 26.4 87% 22 NA 29.79 M
7:55 am EST W 6.9 G 16.1 10.00 Overcast -- 29.0 26.6 90% 22 NA 29.79 M
6:55 am EST W 10.4 G 16.1 10.00 Overcast -- 29.0 26.2 89% 20 NA 29.77 M
5:55 am EST W 13.8 G 24.2 10.00 Overcast -- 29.0 25.7 87% 18 NA 29.74 M
4:55 am EST NW 10.4 10.00 Overcast -- 29.0 24.8 83% 20 NA 29.74 M
3:55 am EST W 8.1 10.00 Overcast -- 29.0 24.3 81% 21 NA 29.75 M
2:55 am EST W 12.7 G 19.6 10.00 Overcast -- 29.0 23.9 80% 19 NA 29.76 M
1:55 am EST W 10.4 G 17.3 10.00 Overcast -- 29.0 23.7 80% 20 NA 29.75 M
12:55 am EST W 11.5 G 17.3 10.00 Overcast -- 29.0 23.7 81% 19 NA 29.74 M
11:55 pm EST W 12.7 G 18.4 10.00 Overcast -- 29.0 23.0 79% 19 NA 29.74 M
10:55 pm EST W 12.7 G 23.0 10.00 Overcast -- 28.0 22.8 80% 17 NA 29.71 M

Regional Weather Observation


Hillsville, VA (KHLX)

Overcast
34.0 F

Dublin / New River Valley, VA (KPSK)

Overcast
34.0 F

Bluefield, Mercer County Airport, WV (KBLF)

Light Snow
31.0 F

Virginia Tech Airport, VA (KBCB)

Overcast
36.0 F

Tazewell County Airport, VA (KJFZ)

Overcast
32.0 F

Jefferson - Ashe County Airport, NC (KGEV)

Overcast
32.0 F